sat.trackr.live / text

‹ back to catalog

KESTREL-0A

NORAD 64624 · 2025-138D

PAYLOAD ACTIVE UNKNOWN

§ Identity

Operator
Country
US
Launch date
2025-06-26
Launch site
RLLB
Launch vehicle
Mass (kg)
RCS (m²)

External: N2YO · Heavens-Above · Gunter

§ Orbital elements

Epoch: 2026-05-24T23:26:01.976064Z

Period
94.57 min
Inclination
97.4409°
Eccentricity
0.0012660
Mean motion
15.22747641 rev/d
Perigee alt
488.9 km
Apogee alt
506.3 km
Semi-major
6,875.7 km
B*
3.3352e-4
RAAN
149.3356°
Arg perigee
197.6117°
Mean anomaly
162.4682°
Rev number
5,041

§ Raw data

KESTREL-0A1 64624U 25138D   26144.97641176  .00007732  00000+0  33352-3 0  99962 64624  97.4409 149.3356 0012660 197.6117 162.4682 15.22747641 50413

JSON: /api/v1/satellites/64624 · /tle

For live sub-satellite position, see the globe view (requires WebGL).

§ Visibility from observer

Set your observer location to see the next 7 days of passes ≥ 10°. The values pass through the URL so the page stays shareable.

No JS? Fill the form by hand. The geolocation button needs JavaScript.